Time,TemperatureF,DewpointF,PressureIn,WindDirection,WindDirectionDegrees,WindSpeedMPH,WindSpeedGustMPH,Humidity,HourlyPrecipIn,Conditions,Clouds,dailyrainin,SoftwareType,DateUTC
2013-07-21 00:02:00,59.0,-99.9,30.09,SSE,164,8.0,9.0,-999,-99.99,,,-99.99,,2013-07-21 08:02:00,
2013-07-21 00:11:00,58.0,-99.9,30.09,SSE,159,5.0,8.0,-999,-99.99,,,-99.99,,2013-07-21 08:11:00,
2013-07-21 00:33:00,59.0,-99.9,30.09,SSE,167,7.0,8.0,-999,-99.99,,,-99.99,,2013-07-21 08:33:00,
2013-07-21 00:43:00,59.0,-99.9,30.09,SSE,160,5.0,6.0,-999,-99.99,,,-99.99,,2013-07-21 08:43:00,
2013-07-21 00:52:00,59.0,-99.9,30.08,SSE,166,6.0,8.0,-999,-99.99,,,-99.99,,2013-07-21 08:52:00,
2013-07-21 01:02:00,57.0,-99.9,30.08,SSE,154,2.0,5.0,-999,-99.99,,,-99.99,,2013-07-21 09:02:00,
2013-07-21 01:12:00,56.0,-99.9,30.09,South,180,2.0,4.0,-999,-99.99,,,-99.99,,2013-07-21 09:12:00,
2013-07-21 01:32:00,56.0,-99.9,30.09,ENE,58,2.0,3.0,-999,-99.99,,,-99.99,,2013-07-21 09:32:00,
2013-07-21 01:42:00,55.0,-99.9,30.09,NE,54,2.0,3.0,-999,-99.99,,,-99.99,,2013-07-21 09:42:00,
2013-07-21 01:52:00,56.0,-99.9,30.09,East,85,3.0,4.0,-999,-99.99,,,-99.99,,2013-07-21 09:52:00,
2013-07-21 02:02:00,56.0,-99.9,30.09,ENE,73,4.0,6.0,-999,-99.99,,,-99.99,,2013-07-21 10:02:00,
2013-07-21 02:11:00,56.0,-99.9,30.09,East,95,4.0,4.0,-999,-99.99,,,-99.99,,2013-07-21 10:11:00,
2013-07-21 02:43:00,55.0,-99.9,30.09,NNE,25,1.0,4.0,-999,-99.99,,,-99.99,,2013-07-21 10:43:00,
2013-07-21 02:52:00,54.0,-99.9,30.09,East,83,3.0,4.0,-999,-99.99,,,-99.99,,2013-07-21 10:52:00,
2013-07-21 03:02:00,55.0,-99.9,30.09,ENE,58,4.0,5.0,-999,-99.99,,,-99.99,,2013-07-21 11:02:00,
2013-07-21 03:12:00,55.0,-99.9,30.09,East,89,2.0,4.0,-999,-99.99,,,-99.99,,2013-07-21 11:12:00,
2013-07-21 03:52:00,55.0,-99.9,30.09,West,267,3.0,4.0,-999,-99.99,,,-99.99,,2013-07-21 11:52:00,
2013-07-21 04:01:00,53.0,-99.9,30.09,North,350,0.0,2.0,-999,-99.99,,,-99.99,,2013-07-21 12:01:00,
2013-07-21 04:11:00,53.0,-99.9,30.09,West,274,0.0,1.0,-999,-99.99,,,-99.99,,2013-07-21 12:11:00,
2013-07-21 04:53:00,51.0,-99.9,30.09,ENE,72,-999.0,1.0,-999,-99.99,,,-99.99,,2013-07-21 12:53:00,
2013-07-21 05:02:00,52.0,-99.9,30.09,ESE,108,-999.0,2.0,-999,-99.99,,,-99.99,,2013-07-21 13:02:00,
2013-07-21 05:43:00,51.0,-99.9,30.07,NE,48,1.0,2.0,-999,-99.99,,,-99.99,,2013-07-21 13:43:00,
2013-07-21 06:12:00,52.0,-99.9,30.07,East,84,3.0,4.0,-999,-99.99,,,-99.99,,2013-07-21 14:12:00,
2013-07-21 06:23:00,54.0,-99.9,30.07,NE,34,0.0,2.0,-999,-99.99,,,-99.99,,2013-07-21 14:23:00,
2013-07-21 08:32:00,60.0,-99.9,30.06,NNW,337,2.0,4.0,-999,-99.99,,,-99.99,,2013-07-21 16:32:00,
2013-07-21 09:02:00,61.0,-99.9,30.06,North,359,9.0,10.0,-999,-99.99,,,-99.99,,2013-07-21 17:02:00,
2013-07-21 09:43:00,59.0,-99.9,30.06,NNW,332,5.0,6.0,-999,-99.99,,,-99.99,,2013-07-21 17:43:00,
2013-07-21 10:01:00,60.0,-99.9,30.06,North,350,5.0,6.0,-999,-99.99,,,-99.99,,2013-07-21 18:01:00,
2013-07-21 10:22:00,60.0,-99.9,30.06,NNW,340,6.0,7.0,-999,-99.99,,,-99.99,,2013-07-21 18:22:00,
2013-07-21 10:32:00,59.0,-99.9,30.06,NNW,341,3.0,4.0,-999,-99.99,,,-99.99,,2013-07-21 18:32:00,
2013-07-21 10:43:00,59.0,-99.9,30.06,NW,319,3.0,3.0,-999,-99.99,,,-99.99,,2013-07-21 18:43:00,
2013-07-21 11:42:00,62.0,-99.9,30.05,WSW,250,1.0,2.0,-999,-99.99,,,-99.99,,2013-07-21 19:42:00,
2013-07-21 11:52:00,63.0,-99.9,30.05,South,190,0.0,1.0,-999,-99.99,,,-99.99,,2013-07-21 19:52:00,
2013-07-21 12:02:00,64.0,-99.9,30.05,WSW,254,-999.0,1.0,-999,-99.99,,,-99.99,,2013-07-21 20:02:00,
2013-07-21 12:32:00,62.0,-99.9,30.04,WNW,291,2.0,3.0,-999,-99.99,,,-99.99,,2013-07-21 20:32:00,
2013-07-21 12:43:00,63.0,-99.9,30.04,WNW,292,2.0,3.0,-999,-99.99,,,-99.99,,2013-07-21 20:43:00,
2013-07-21 12:52:00,63.0,-99.9,30.04,SW,224,1.0,2.0,-999,-99.99,,,-99.99,,2013-07-21 20:52:00,
2013-07-21 13:01:00,61.0,-99.9,30.04,WSW,242,3.0,4.0,-999,-99.99,,,-99.99,,2013-07-21 21:01:00,
2013-07-21 13:11:00,62.0,-99.9,30.04,West,266,3.0,4.0,-999,-99.99,,,-99.99,,2013-07-21 21:11:00,
2013-07-21 13:52:00,60.0,-99.9,30.04,SSW,208,2.0,3.0,-999,-99.99,,,-99.99,,2013-07-21 21:52:00,
2013-07-21 14:11:00,60.0,-99.9,30.04,SSW,213,4.0,5.0,-999,-99.99,,,-99.99,,2013-07-21 22:11:00,
2013-07-21 14:43:00,61.0,-99.9,30.04,SSW,209,5.0,5.0,-999,-99.99,,,-99.99,,2013-07-21 22:43:00,
2013-07-21 14:52:00,61.0,-99.9,30.04,South,176,2.0,5.0,-999,-99.99,,,-99.99,,2013-07-21 22:52:00,
2013-07-21 15:02:00,61.0,-99.9,30.03,SSW,195,5.0,6.0,-999,-99.99,,,-99.99,,2013-07-21 23:02:00,
2013-07-21 15:22:00,61.0,-99.9,30.03,SSW,198,4.0,5.0,-999,-99.99,,,-99.99,,2013-07-21 23:22:00,
2013-07-21 15:43:00,62.0,-99.9,30.02,South,191,3.0,5.0,-999,-99.99,,,-99.99,,2013-07-21 23:43:00,
2013-07-21 15:53:00,61.0,-99.9,30.02,SSW,200,4.0,5.0,-999,-99.99,,,-99.99,,2013-07-21 23:53:00,
2013-07-21 16:01:00,63.0,-99.9,30.02,South,181,3.0,4.0,-999,-99.99,,,-99.99,,2013-07-22 00:01:00,
2013-07-21 16:32:00,63.0,-99.9,30.02,SSW,195,2.0,4.0,-999,-99.99,,,-99.99,,2013-07-22 00:32:00,
2013-07-21 16:42:00,62.0,-99.9,30.02,SW,215,2.0,3.0,-999,-99.99,,,-99.99,,2013-07-22 00:42:00,
2013-07-21 17:02:00,63.0,-99.9,30.01,SSW,205,-999.0,2.0,-999,-99.99,,,-99.99,,2013-07-22 01:02:00,
2013-07-21 18:32:00,63.0,-99.9,30.00,SW,234,-999.0,4.0,-999,-99.99,,,-99.99,,2013-07-22 02:32:00,
2013-07-21 18:52:00,64.0,-99.9,30.00,NNW,331,2.0,4.0,-999,-99.99,,,-99.99,,2013-07-22 02:52:00,
2013-07-21 19:01:00,63.0,-99.9,30.00,North,354,1.0,5.0,-999,-99.99,,,-99.99,,2013-07-22 03:01:00,
2013-07-21 19:33:00,64.0,-99.9,30.00,NW,320,1.0,3.0,-999,-99.99,,,-99.99,,2013-07-22 03:33:00,
2013-07-21 19:43:00,64.0,-99.9,30.00,NNW,347,3.0,8.0,-999,-99.99,,,-99.99,,2013-07-22 03:43:00,
2013-07-21 19:53:00,64.0,-99.9,30.00,North,350,3.0,6.0,-999,-99.99,,,-99.99,,2013-07-22 03:53:00,
2013-07-21 20:01:00,64.0,-99.9,30.00,NNW,348,2.0,5.0,-999,-99.99,,,-99.99,,2013-07-22 04:01:00,
2013-07-21 20:33:00,65.0,-99.9,30.00,NW,323,4.0,4.0,-999,-99.99,,,-99.99,,2013-07-22 04:33:00,
2013-07-21 20:43:00,65.0,-99.9,30.00,NNW,336,2.0,3.0,-999,-99.99,,,-99.99,,2013-07-22 04:43:00,
2013-07-21 21:02:00,66.0,-99.9,29.99,NNW,342,2.0,2.0,-999,-99.99,,,-99.99,,2013-07-22 05:02:00,
2013-07-21 21:32:00,67.0,-99.9,30.00,NW,326,2.0,3.0,-999,-99.99,,,-99.99,,2013-07-22 05:32:00,
2013-07-21 21:43:00,68.0,-99.9,30.00,North,352,0.0,2.0,-999,-99.99,,,-99.99,,2013-07-22 05:43:00,
2013-07-21 21:52:00,66.0,-99.9,30.00,NW,322,-999.0,2.0,-999,-99.99,,,-99.99,,2013-07-22 05:52:00,
2013-07-21 22:01:00,65.0,-99.9,30.00,South,180,1.0,2.0,-999,-99.99,,,-99.99,,2013-07-22 06:01:00,
2013-07-21 22:52:00,70.0,-99.9,30.00,NE,39,7.0,10.0,-999,-99.99,,,-99.99,,2013-07-22 06:52:00,
2013-07-21 23:01:00,69.0,-99.9,30.01,NE,34,7.0,11.0,-999,-99.99,,,-99.99,,2013-07-22 07:01:00,
2013-07-21 23:43:00,69.0,-99.9,30.01,NNE,28,10.0,13.0,-999,-99.99,,,-99.99,,2013-07-22 07:43:00,